Orbital elements:
2017 AC5                                                 Earth MOID = 0.1917 AU
Epoch 2023 Sept. 13.0 TT = JDT 2460200.5                Veres                   
M 288.62228              (2000.0)            P               Q                  
n   0.27755760     Peri.   23.52322     -0.94959761     +0.31293518             
a   2.3275586      Node   174.61309     -0.30957293     -0.92699025             
e   0.4932263      Incl.   11.25858     -0.04928474     -0.20678650             
P   3.55           H   20.09          G   0.15           U   0                  
Residuals in seconds of arc
170103 F51  0.2-  0.0     170316 160  0.0   0.1-    170405 W34  0.5+  0.1-
170103 F51  0.0   0.0     170317 W25  0.1+  0.1-    170405 W34  0.1-  0.1+
170103 F51  0.1-  0.0     170317 W25  0.4+  0.3+    170405 T08  1.0-  0.7-
170104 F51  0.2-  0.2+    170317 G96  0.1+  0.1-    170405 T08  0.1+  0.1+
170104 F51  0.2-  0.0     170317 G96  0.3+  0.0     170405 T08  0.0   0.1-
170105 705  0.2+  0.2+    170317 G96  0.2+  0.1-    170405 T08  0.9-  0.3-
170105 705  0.3-  0.5+    170317 G96  0.2+  0.0     170406 H45  0.3-  0.1-
170105 705  0.3-  0.2-    170317 691  0.1-  0.1-    170406 H45  0.1-  0.2-
170107 291  0.3-  0.0     170317 691  0.3-  0.0     170406 H45  0.4-  0.3-
170107 291  0.2-  0.1+    170317 691  0.1-  0.1-    170406 H45  0.4-  0.2-
170107 291  0.7-  0.1-    170318 H21  0.2-  0.1-    170406 H45  0.1-  0.3-
170109 695  0.1-  0.2+    170318 H21  0.1-  0.0     170406 H45  0.3-  0.3-
170109 695  0.1-  0.4+    170318 H21  0.2-  0.0     170406 K38  0.1+  0.0
170109 695  0.2+  0.3+    170318 H21  0.2-  0.0     170406 K38  0.1+  0.1+
170118 807  0.0   0.1-    170318 H21  0.2-  0.2-    170406 K38  0.1-  0.2+
170118 807  0.2-  0.2-    170318 F51  0.2-  0.0     170406 160  0.5-  0.0
170118 807  0.3-  0.0     170318 F51  0.3-  0.0     170406 160  0.1-  0.0
170119 474  0.3-  0.4-    170318 F51  0.2-  0.0     170406 160  0.1+  0.4+
170119 474  0.2-  0.0     170319 703  0.2+  0.0     170406 Z80  0.2+  0.3+
170119 474  0.4+  0.2+    170319 703  0.2+  0.3+    170406 Z80  0.4+  0.1-
170119 474  0.1-  0.3+    170319 703  0.1+  0.1+    170406 Z80  0.2+  0.7-
170127 474  0.0   0.1-    170319 703  0.2+  0.0     170407 H21  0.1-  0.0
170127 474  0.0   0.1-    170320 W25  0.1+  0.1-    170407 H21  0.0   0.5-
170127 474  0.2-  0.2-    170320 W25  0.0   0.2-    170407 H21  0.0   0.2-
170130 691  0.0   0.2-    170320 H45  0.1-  0.0     170407 160  0.4+  0.2-
170130 691  0.2+  0.0     170320 H45  0.3-  0.2-    170407 160  0.3+  0.3-
170130 691  0.1-  0.1-    170320 H45  0.2-  0.0     170407 160  0.2-  0.4-
170130 691  0.1+  0.0     170320 H45  0.0   0.2-    170407 203  0.0   0.0
170130 691  0.1-  0.0     170320 H45  0.1-  0.1-    170407 203  0.0   0.4-
170201 691  0.0   0.1-    170320 H45  0.2-  0.1-    170408 H45  0.0   0.1-
170201 691  0.0   0.0     170320 T08  0.5-  0.5-    170408 H45  0.2-  0.3-
170201 691  0.2-  0.3+    170320 T05  0.1+  0.7-    170408 H45  0.4-  0.1-
170202 H21  0.2+  0.0     170320 T08  0.5-  0.1+    170408 H45  0.2-  0.5-
170202 H21  0.3+  0.0     170320 T05  0.1-  0.2-    170408 H45  0.2+  0.3-
170202 H21  0.0   0.0     170320 T08  0.4-  0.1-    170408 H45  0.5-  0.3-
170202 F51  0.1+  0.0     170320 T05  0.2-  0.0     170408 160  0.2+  0.1-
170202 F51  0.0   0.0     170320 T08  0.3-  0.3+    170408 160  0.2-  0.0
170202 F51  0.1+  0.0     170320 T05  0.0   0.6-    170408 160  0.5-  0.2-
170202 F51  0.0   0.0     170320 Z80  0.2-  0.1+    170412 H21  0.1+  0.1+
170205 G45  0.3-  0.4+    170320 Z80  0.3-  0.2-    170412 H21  0.3-  0.0
170205 G45  0.0   0.1+    170320 Z80  0.7-  0.0     170412 H21  0.2+  0.2-
170205 G45  0.2+  0.2-    170320 Z80  0.0   0.6-    170413 D29  0.3-  0.4-
170205 G45  0.1+  0.2-    170321 G48  0.3-  0.1+    170413 D29 (0.5-  1.8+)
170210 H21 (2.7+  0.3-)   170321 G48  0.3-  0.3-    170413 D29  0.4-  0.0
170210 H21 (2.7+  0.2-)   170321 G48  0.2-  0.1+    170413 160  0.3+  0.0
170210 H21 (2.8+  0.0 )   170321 G48  0.7-  0.2+    170413 160  0.1+  0.1-
170216 807  0.0   0.2+    170321 H45  0.1+  0.1-    170413 160  0.1+  0.1+
170216 807  0.0   0.2+    170321 H45  0.2-  0.4-    170414 204  0.2+  0.1-
170216 807  0.0   0.3+    170321 H45  0.1-  0.1-    170414 204  0.2+  0.1-
170216 H21  0.4+  0.2+    170321 H45  0.2-  0.5-    170414 204  0.1+  0.0
170216 H21  0.3+  0.1+    170321 H45  0.1+  0.0     170414 H21  1.2-  0.6-
170216 H21  0.2+  0.2+    170321 H45  0.1-  0.1-    170414 H21  1.3-  0.7-
170216 Q60  0.6-  0.5+    170321 T08  0.8-  0.6-    170414 H21  1.2-  0.6-
170216 Q60  0.0   0.6-    170321 T08  0.6+  0.8+    170414 H21  1.4-  0.8-
170216 Q60  0.5+  0.9-    170321 T08  0.1-  0.4-    170414 H21  1.4-  0.7-
170217 H21 (0.8+  1.3+)   170321 T08 (1.0-  1.8-)   170414 L04  0.2-  0.3+
170217 H21 (1.1+  1.4+)   170322 L04  0.1+  0.4-    170414 L04  0.2-  0.1+
170217 H21 (0.9+  1.3+)   170322 L04  0.5+  0.1+    170415 I15  0.2+  0.0
170219 204  0.3+  0.5-    170322 L04  0.3+  0.4-    170415 I15  0.1-  0.0
170219 204  0.0   0.0     170322 L04  0.1+  0.3+    170415 I15  0.0   0.0
170221 G45  0.0   0.0     170322 Z21  0.0   0.1-    170415 G48  0.7+  0.5-
170221 G45  0.2+  0.2+    170322 Z21  0.1+  0.1-    170415 G48  0.2+  0.8+
170221 G45  0.0   0.1-    170322 Z21  0.1+  0.1-    170415 G48  0.4+  0.3+
170221 G45  0.2+  0.2-    170322 Z21  0.0   0.1-    170415 F51  0.1+  0.1+
170221 G45  0.4+  0.3+    170323 W25  0.1+  0.5+    170415 F51  0.1+  0.0
170221 G45  0.3+  0.1+    170323 W25  0.5+  0.5+    170415 F51  0.2+  0.1+
170221 G45  0.1+  0.4+    170323 H21  0.0   0.1-    170415 F51  0.2+  0.1+
170221 G45  0.0   0.4+    170323 H21  0.1+  0.1-    170416 H21  0.1-  0.2+
170221 G45  0.1+  0.4+    170323 H21  0.2+  0.1+    170416 H21  0.2-  0.3+
170221 G45  0.0   0.5+    170323 H21  0.2+  0.0     170416 H21  0.0   0.6+
170221 G45  0.7+  0.5+    170323 H21  0.2+  0.1-    170416 H21  0.2-  0.3+
170221 G45  0.3+  0.1+    170323 H21  0.3+  0.1-    170416 H21  0.2+  0.2-
170221 G45  0.4+  0.0     170323 H21  0.1+  0.1+    170417 T08  0.7+  0.1-
170222 W88  0.1-  0.1+    170323 Z21  0.0   0.2-    170417 T08  0.6+  0.0
170222 W88  1.0-  0.4-    170323 Z21  0.1-  0.0     170417 T08  0.2+  0.6-
170222 G45  0.3+  0.1+    170323 Z21  0.0   0.1-    170417 T08  0.3+  0.4-
170222 G45  0.4+  0.1+    170323 Z21  0.3+  0.2-    170418 130  0.2+  0.0
170222 G45  0.1+  0.2+    170324 H45  0.4-  0.1+    170418 130  0.1+  0.0
170222 G45  0.4+  0.0     170324 H45  0.2-  0.4+    170418 130  0.2+  0.4+
170222 H15  0.1+  0.5-    170324 H45  0.1+  0.4-    170418 130  0.1+  0.2+
170222 H15  0.1-  1.2-    170324 H45  0.1+  0.1+    170419 H21  0.2+  0.0
170222 H15  0.8+  0.1-    170324 H45  0.6-  0.2-    170419 H21  0.2+  0.1+
170224 703  0.2+  0.5+    170324 H45  0.2-  0.2-    170419 H21  0.1+  0.2+
170224 703  0.4+  0.4-    170326 703  0.3+  0.3+    170419 H21  0.1+  0.0
170224 G96  0.8+  0.2+    170326 703  0.2+  0.0     170419 H21  0.0   0.0
170224 703  0.7+  0.3+    170326 703  0.4+  0.1+    170419 H21  0.1+  0.0
170224 G96  0.0   0.1-    170326 703  0.5+  0.1+    170419 H21  0.1+  0.1-
170224 703  0.2+  0.1+    170327 W84  0.1+  0.1+    170420 160 (1.4+  0.8-)
170224 G96  0.4+  0.2+    170327 691  0.2-  0.3-    170420 160 (1.0+  0.6-)
170224 G96  0.3+  0.0     170327 691  0.1-  0.0     170420 160 (1.3+  0.2+)
170224 G45  0.4+  0.2+    170327 691  0.1-  0.1-    170420 H45  0.2-  0.1-
170224 G45  0.2+  0.2+    170327 D29  0.0   0.0     170420 H45  0.1+  0.1-
170224 G45  0.2+  0.0     170327 D29  0.8+  0.5+    170420 H45  0.1+  0.1-
170224 G45  0.7+  0.0     170327 D29  0.2+  0.1+    170420 H45  0.1+  0.0
170224 G45  0.2+  0.1-    170327 C95  0.1+  0.2+    170420 H45  0.0   0.3-
170224 G45  0.2+  0.0     170327 C95  0.0   0.1+    170420 H45  0.2+  0.2-
170226 H45  0.0   0.2+    170327 C95  0.5-  0.0     170420 160  0.2-  0.0
170226 H45  0.2-  0.1-    170327 C95  0.2+  0.1+    170421 160  0.2-  0.1+
170226 H45  0.4-  0.2-    170327 C95  0.0   0.1+    170421 160  0.3-  0.1+
170226 H45  0.1-  0.2-    170327 A53  0.1+  0.3-    170421 G96  0.2+  0.0
170226 H45  0.1+  0.1-    170327 A53  0.2+  0.1-    170421 G96  0.2+  0.1+
170226 H45  0.3+  0.1-    170327 C95  0.3+  0.2+    170421 G96  0.1+  0.0
170302 W84  0.0   0.1-    170327 A53  0.4+  0.3-    170421 G96  0.1+  0.1+
170302 G45  0.1+  0.1+    170327 C95  0.1+  0.1+    170421 160  0.0   0.1-
170302 G45  0.0   0.1+    170327 A53  0.4+  0.2-    170422 160  0.1-  0.0
170302 G45  0.2+  0.2+    170327 A53  0.4+  0.2-    170422 160  0.1-  0.2+
170302 G45  0.3+  0.1+    170327 C95  0.2+  0.1+    170422 703  0.3+  0.2+
170302 G45  0.1+  0.2+    170327 C95  0.3+  0.1+    170422 703  0.2+  0.2+
170302 G45  0.1+  0.1+    170327 C95  0.2+  0.1+    170422 703  0.0   0.1-
170302 H21  0.1-  0.1+    170327 C95  0.3+  0.2+    170422 703  0.4-  0.2-
170302 H21  0.1-  0.2+    170328 160  0.3+  0.2+    170423 160  0.1-  0.1-
170302 H21  0.1+  0.0     170328 160  0.2+  0.0     170423 160  0.0   0.0
170302 H21  0.1+  0.1+    170328 160  0.3+  0.2-    170423 160  0.2-  0.2+
170302 H21  0.1-  0.1+    170328 C95  0.2+  0.1+    170424 H45  0.0   0.0
170302 H45  0.1-  0.3+    170328 C95  0.0   0.3+    170424 H45  0.1+  0.1-
170302 H45  0.1-  0.2+    170328 C95  0.2+  0.2+    170424 H45  0.1+  0.0
170302 H21  0.1+  0.1+    170328 G40  0.0   0.1-    170424 H45  0.1+  0.0
170302 H45  0.1-  0.0     170328 C95  0.3+  0.2+    170424 H45  0.1-  0.1-
170302 703  0.2+  0.1-    170328 C95  0.1+  0.1+    170424 H45  0.0   0.1+
170302 H45  0.0   0.2+    170328 C95  0.2+  0.1+    170425 H45  0.5-  0.2-
170302 H21  0.1+  0.0     170328 G40  0.0   0.0     170425 H45  0.0   0.1-
170302 H45  0.0   0.0     170328 C95  0.0   0.2+    170425 H45  0.4+  0.0
170302 H45  0.1-  0.2+    170328 C95  0.2+  0.0     170425 H45  0.1-  0.0
170302 H21  0.1+  0.0     170328 C95  0.2+  0.2-    170425 H45  0.7+  0.1+
170302 H21  0.0   0.0     170328 C95  0.1+  0.1+    170425 H45  0.1-  0.0
170302 703  0.0   0.1+    170328 H45  0.1-  0.0     170427 703  0.0   0.5+
170302 H21  0.1-  0.0     170328 H45  0.2-  0.1-    170427 703  1.3+  0.5-
170302 703  0.0   0.0     170328 H45  0.1-  0.0     170427 703  0.0   0.3+
170302 703  0.0   0.5+    170328 H45  0.1+  0.1-    170427 703  0.5+  0.1+
170303 W84  0.1+  0.2-    170328 H45  0.4-  0.1-    170428 K89  1.4+  0.6-
170303 H45  0.2+  0.1+    170328 H45  0.0   0.1+    170428 K89 (1.4+  1.4+)
170303 H45  0.0   0.1+    170328 107  0.3+  0.3-    170429 B66  0.1+  0.3-
170303 H45  0.2-  0.1+    170328 107  0.2+  0.1+    170429 B66  0.8+  0.4-
170303 H45  0.1-  0.1-    170328 107  0.3+  0.5+    170430 K89  0.1-  0.2-
170303 H45  0.0   0.1+    170328 107  0.3+  0.1+    170430 K89  0.2+  0.0
170303 H45  0.0   0.1+    170328 C77  0.3-  0.0     170502 H45  0.6-  0.3-
170303 K65  0.2-  0.1+    170328 C77  0.0   0.0     170502 H45  0.3-  0.2-
170303 K65  0.0   0.1+    170328 C77  0.1+  0.2-    170502 H45  0.0   0.2-
170304 K65  0.1+  0.1+    170329 G96  0.2+  0.1+    170502 H45  0.0   0.2-
170304 807  0.2-  0.1-    170329 G96  0.1+  0.1+    170502 H45  0.4-  0.3-
170304 807  0.0   0.1-    170329 G96  0.3+  0.1-    170502 H45  0.6-  0.1-
170304 807  0.2-  0.0     170329 G96  0.2+  0.0     170503 G96  0.0   0.0
170304 H45  0.2+  0.4-    170329 G96  0.2+  0.1+    170503 G96  0.0   0.1-
170304 H45  0.2-  0.2-    170329 G96  0.3+  0.1-    170503 G96  0.2+  0.2-
170304 H45  0.3-  0.0     170329 G96  0.3+  0.0     170503 G96  0.2+  0.1-
170304 H45  0.2-  0.1+    170329 G96  0.3+  0.2+    170504 703  0.6+  0.0
170304 H45  0.2-  0.4-    170329 G96  0.3+  0.0     170504 703  0.5+  0.3+
170304 H45  0.0   0.3-    170329 G96  0.2+  0.0     170504 703  0.1-  0.0
170304 T05  0.1-  0.3+    170329 G96  0.3+  0.1-    170504 703  0.4+  0.2+
170304 T05  0.8-  0.3-    170329 G96  0.3+  0.0     170505 W84  0.2+  0.1-
170304 T05  0.1+  0.3-    170329 T05  0.2-  0.3-    170505 W84  0.1+  0.1-
170304 T05  0.3-  0.1-    170329 T05  0.6+  0.3-    170507 H21  0.4-  0.1-
170304 T05  0.3-  0.1-    170329 T05  0.4-  0.1+    170507 H21  0.3-  0.1-
170304 T05  0.3+  0.0     170329 T05  0.4-  0.2+    170507 H21  0.3-  0.4-
170304 T05  0.2-  0.7+    170329 T05  0.5-  0.7-    170512 705  0.3+  0.1+
170304 T05  0.2-  0.1-    170330 B67  0.5+  0.5+    170512 705  0.4+  0.1-
170305 703  0.2+  0.5+    170330 B67  0.4+  0.6+    170512 705  0.2+  0.1-
170305 703  0.1+  0.6+    170330 B67  0.4+  0.5+    170514 H21  0.3+  0.1+
170305 703  0.5-  0.4+    170330 W25  0.5-  0.2+    170514 H21  0.1+  0.8+
170306 T08 (0.5-  1.5+)   170330 W25  0.2+  0.3+    170514 H21  0.1-  0.1+
170306 T08  0.6+  1.1-    170330 160  0.0   0.7+    170515 H21  0.2+  0.1+
170306 T08  0.0   0.3-    170330 160  0.0   0.2+    170515 H21  0.0   0.1-
170306 T08  0.5-  0.5+    170330 160  0.4-  0.3+    170515 H21  0.0   0.1-
170308 H45  0.2-  0.0     170331 703  0.1-  0.4-    170515 A17  0.1+  0.2-
170308 H45  0.4-  0.2+    170331 703  0.0   0.0     170515 A17  0.2-  0.2-
170308 H45  0.1+  0.3-    170331 703  0.2+  0.5-    170515 A17  0.7-  0.1+
170308 H45  0.0   0.3-    170331 703  0.1-  0.0     170516 G96  0.2-  0.1+
170308 H45  0.5-  0.2-    170331 H45  0.5-  0.1-    170516 G96  0.2-  0.1+
170308 H45  0.4-  0.4+    170331 H45  0.3-  0.1-    170516 G96  0.0   0.1-
170308 160 (1.0+  1.5+)   170331 H45  0.2-  0.0     170516 G96  0.0   0.1-
170308 160 (1.3+  1.1+)   170331 H45  0.4-  0.1-    170525 G96  0.2+  0.3+
170308 160 (1.9+  0.1-)   170331 H45  0.2-  0.0     170525 G96  0.4+  0.0
170309 H21  0.3-  0.4-    170331 H45  0.2-  0.1+    170525 G96  0.3+  0.1-
170309 H21  0.2-  0.1-    170401 H45  0.2+  0.2+    170525 G96  0.1+  0.1+
170309 H21  0.3-  0.0     170401 H45  0.1+  0.1+    170530 703  0.5+  1.1+
170309 H21  0.2-  0.4-    170401 H45  0.1-  0.1+    170530 703  0.4+  0.1+
170309 H21  0.2-  0.3-    170401 H45  0.0   0.3+    170530 703  1.1+  0.9+
170309 H21  0.3-  0.3-    170401 H45  0.0   0.0     170530 703  0.4-  0.1+
170310 160 (0.9-  0.2-)   170401 H45  0.2+  0.3+    170601 H21  0.3-  0.3+
170310 160 (0.6-  0.3-)   170401 T08  0.2+  0.3-    170601 H21  0.1+  0.1+
170310 160  0.4-  0.2-    170401 T08  0.2-  0.1+    170601 H21  0.3+  0.4+
170313 160  0.2-  0.2+    170401 T08  0.6-  0.2-    170614 H21  0.3-  0.3-
170313 160  0.2-  0.5+    170401 T08  0.3+  0.1+    170614 H21  0.5-  0.8-
170313 160  0.1-  0.5+    170402 W25  0.3+  0.1+    170616 H21  0.1-  0.3-
170314 Z80  0.2-  0.7+    170402 W25  0.1+  0.4+    170616 H21  0.7-  0.1+
170314 Z80  0.6+  0.8+    170402 Z80  0.1-  0.3+    170616 H21  0.0   0.4-
170314 Z80  0.4-  0.1+    170402 Z80  0.2+  0.8+    170617 G96  0.1+  0.2-
170315 H21  0.2+  0.3-    170402 Z80  0.2+  0.7+    170617 G96  0.0   0.3+
170315 H21  0.4+  0.2-    170402 Z80  0.1-  0.1-    170617 G96  0.1-  0.2-
170315 H21  0.2+  0.3-    170402 Z80  0.1-  0.1-    170617 G96  0.2-  0.1+
170315 H21  0.1+  0.1-    170403 160  0.2-  0.2+    170617 G96  0.4-  0.3+
170315 H21  0.3+  0.2-    170403 160  0.4-  0.2+    170617 G96  0.6-  0.0
170315 H21  0.1+  0.2-    170403 160  0.4-  0.0     170617 G96  0.6-  0.5+
170315 H21  0.3+  0.3-    170403 B66  0.8+  0.8+    170617 G96  0.7-  0.2+
170315 H21  0.0   0.3-    170404 B66  1.0+  1.0+    170624 G96  0.4-  0.3+
170315 H21  0.1+  0.1-    170404 B66  0.4+  0.4+    170624 G96  0.0   0.0
170315 W25  0.1+  0.2+    170404 H45  0.1-  0.2-    170624 G96  0.2-  0.1-
170315 W25  0.1+  0.1+    170404 H45  0.1+  0.1-    170624 G96  0.3+  0.3+
170316 H21  0.0   0.1-    170404 H45  0.1-  0.1-    170701 G96  0.1+  0.1-
170316 H21  0.0   0.1-    170404 H45  0.0   0.1-    170701 G96  0.2-  0.2+
170316 H21  0.1-  0.0     170404 H45  0.1-  0.2-    170701 G96  0.5-  0.0
170316 H21  0.1+  0.0     170404 H45  0.1+  0.1-    170701 G96  0.2-  0.1-
170316 H21  0.1-  0.1-    170404 K65  0.1-  0.1-    240110 291  0.1+  0.3+
170316 H21  0.1-  0.2-    170404 160 (2.0-  0.5-)   240110 291  0.1+  0.0
170316 H21  0.2-  0.1+    170404 160 (1.6-  0.7-)   240110 291  0.2+  0.1-
170316 W25  0.1-  0.0     170404 160 (1.8-  0.6-)   240119 I52  0.3-  0.2+
170316 W25  0.0   0.1+    170404 K65  0.0   0.1-    240119 I52  0.1+  0.4+
170316 W25  0.1-  0.2+    170404 K65  0.0   0.2-    240119 I52  0.1-  0.0
170316 160 (0.6+  0.1-)   170405 W34  0.4+  0.0     240119 I52  0.1+  0.6-
170316 160  0.1+  0.3-    170405 W34  0.2-  0.2-

